Regional Weather Roundup
Issued by NWS

Home | Current Version | Previous Version | Text Only | Print | Product List | Glossary On
Versions: 1 2 3 4 5 6 7 8 9 10 11 12 13 14 15 16 17 18 19 20 21 22 23 24 25 26 27 28 29 30 31 32 33 34 35 36 37 38 39 40 41 42 43 44 45 46 47 48 49 50
000
ASUS44 KLIX 191513
RWRLA
LOUISIANA WEATHER ROUNDUP
NATIONAL WEATHER SERVICE NEW ORLEANS LA
1000 AM CDT TUE SEP 19 2017

NOTE: "FAIR" INDICATES FEW OR NO CLOUDS BELOW 12,000 FEET WITH NO
      SIGNIFICANT WEATHER AND/OR OBSTRUCTIONS TO VISIBILITY.
      SKY/WX - SKY CONDITION AND SIGNIFICANT WEATHER.
      TMP - AIR TEMPERATURE.    DP   - DEWPOINT TEMPERATURE.
      RH  - RELATIVE HUMIDITY.  PRES - PRESSURE.
      HX  - HEAT INDEX.         WCI  - WIND CHILL INDEX.

*  THESE STATIONS ARE NOT NWS OR FAA STATIONS AND ARE NOT UNDER
   NWS QUALITY CONTROL.

LAZ040-048-061>063-065-066-069-191600-
SOUTHEAST LOUISIANA

CITY           SKY/WX    TMP DP  RH WIND       PRES   REMARKS
N.O. INTL ARPT PTSUNNY   84  76  76 SW3       30.02S
N.O. LAKEFRONT SUNNY     84  77  79 NW5       30.03S
N.O. DOWNTOWN* FAIR      84  74  71 CALM      30.04R
RESERVE*       CLOUDY    85  76  73 SW5       30.03R
SLIDELL        PTSUNNY   84  76  76 NW3       30.02S
BATON ROUGE    PTSUNNY   83  73  72 W6        30.02R
BOOTHVILLE     SUNNY     85  76  74 SW7       30.03S
BELLE CHASSE   NOT AVBL
BOGALUSA*      CLOUDY    83  76  78 CALM      30.04F
GALLIANO*      MOSUNNY   86  74  68 E3        30.02S
NEW ROADS*     PTSUNNY   82  75  78 SW3       30.02S
GONZALES*      FAIR      82  75  78 CALM      30.01S
HAMMOND*       PTSUNNY   84  72  65 NW5       30.03R
HOUMA*         MOSUNNY   84  75  74 CALM      30.02S
PORT FOURCHON* PTSUNNY   84  73  70 S7        30.03S

$$

LAZ041-044-053-054-191600-
SOUTHWEST LOUISIANA

CITY           SKY/WX    TMP DP  RH WIND       PRES   REMARKS
LAKE CHARLES   PTSUNNY   84  76  76 S7        29.99S
LAFAYETTE      MOSUNNY   85  77  77 VRB3      30.01R HX  95
PATTERSON      MOSUNNY   84  77  79 SE3       30.02R
SALT POINT       N/A     85  76  74 VRB3      30.00R
NEW IBERIA     MOSUNNY   85  74  69 SW5       30.02R
CHENAULT AIRPK PTSUNNY   86  77  74 S7        30.00R HX  97

$$

LAZ027-028-191600-
CENTRAL LOUISIANA

CITY           SKY/WX    TMP DP  RH WIND       PRES   REMARKS
FORT POLK      CLOUDY    80  76  88 SW6       30.01R
ALEXANDRIA INT MOSUNNY   82  76  81 S7        30.00R
ALEXANDRIA     CLOUDY    77  77 100 SW5       30.02R

$$

LAZ001-002-191600-
NORTHWEST LOUISIANA

CITY           SKY/WX    TMP DP  RH WIND       PRES   REMARKS
SHREVEPORT     CLOUDY    79  75  87 SW9       29.99R
BARKSDALE AFB  CLOUDY    79  73  83 SW7       29.99R
DTN SHREVEPORT CLOUDY    79  74  84 SW8       30.00R

$$

LAZ014-016-191600-
NORTHEAST LOUISIANA

CITY           SKY/WX    TMP DP  RH WIND       PRES   REMARKS
MONROE         SUNNY     83  75  77 W6        30.01R
TALLULAH       MOSUNNY   83  75  77 VRB3      30.01R

$$




USA.gov is the U.S. government's official web portal to all federal, state and local government web resources and services.